User: anonymous   Login
Location: Owatonna
(44.0840°N, 93.2260°W)
Time: 05:59:24
(UTC-05:00)
Language:

Cosmos 1500 Rocket - Orbit

View from above orbital plane
View from above orbital plane
View from above satellite
View from above satellite

Ground track
Ground track

The orbit data is extracted from the following two-line orbital elements,

1 14373U 83099B   15109.04559628  .00000712  00000-0  83706-4 0  9990
2 14373 082.5392 262.8282 0019265 316.9690 177.2913 14.83411517703720
Epoch (UTC): 19 April 2015 01:05:39
Eccentricity: 0.0019265
inclination: 82.5392°
perigee height: 605 km
apogee height: 632 km
right ascension of ascending node: 262.8282°
argument of perigee: 316.9690°
revolutions per day: 14.83411517
mean anomaly at epoch: 177.2913°
orbit number at epoch: 70372

The dashed part of the orbit path shows where the satellite is in the earth's shadow,  

DLR